EIN16Y EIDW-EGLL

Flight info

Callsign EIN16Y
Flight time 0h 50m
Altitude 33000
Route ENDEQ3J ENDEQ Q36 NUGRA
Aircraft A320/M-SDE3FGHIRWY/LB1

Departure

Time 2026-05-04 05:31
Airport Dublin Airport (EIDW)

Arrival

Time 2026-05-04 06:21
Airport London Heathrow Airport (EGLL)
Time Latitude Longitude Altitude Speed Heading
2026-05-04 04:55 53.42389 -6.24461 216 ft 0 kts 135°
2026-05-04 05:18 53.42393 -6.24468 211 ft 4 kts 137°
2026-05-04 05:18 53.42415 -6.24496 215 ft 4 kts 153°
2026-05-04 05:18 53.42439 -6.24510 215 ft 4 kts 178°
2026-05-04 05:19 53.42463 -6.24501 211 ft 3 kts 230°
2026-05-04 05:19 53.42478 -6.24469 215 ft 4 kts 226°
2026-05-04 05:19 53.42493 -6.24445 211 ft 4 kts 219°
2026-05-04 05:19 53.42496 -6.24441 211 ft 0 kts 218°
2026-05-04 05:23 53.42480 -6.24464 211 ft 7 kts 225°
2026-05-04 05:24 53.42450 -6.24544 219 ft 8 kts 242°
2026-05-04 05:24 53.42427 -6.24618 211 ft 6 kts 242°
2026-05-04 05:24 53.42403 -6.24691 211 ft 10 kts 238°
2026-05-04 05:24 53.42358 -6.24813 211 ft 13 kts 267°
2026-05-04 05:25 53.42415 -6.24901 219 ft 12 kts 335°
2026-05-04 05:25 53.42493 -6.24956 211 ft 14 kts 336°
2026-05-04 05:25 53.42596 -6.25032 216 ft 19 kts 336°
2026-05-04 05:25 53.42717 -6.25140 215 ft 20 kts 313°
2026-05-04 05:26 53.42835 -6.25275 211 ft 22 kts 338°
2026-05-04 05:26 53.42977 -6.25376 214 ft 23 kts 337°
2026-05-04 05:26 53.43124 -6.25483 212 ft 22 kts 337°
2026-05-04 05:26 53.43267 -6.25587 214 ft 23 kts 336°
2026-05-04 05:27 53.43405 -6.25599 215 ft 21 kts 67°
2026-05-04 05:28 53.43369 -6.23856 211 ft 18 kts
2026-05-04 05:29 53.43481 -6.23877 212 ft 14 kts 300°
2026-05-04 05:29 53.43494 -6.24028 210 ft 12 kts 275°
2026-05-04 05:29 53.43500 -6.24142 213 ft 8 kts 275°
2026-05-04 05:29 53.43514 -6.24397 212 ft 54 kts 275°
2026-05-04 05:31 53.47117 -6.34962 2672 ft 211 kts 347°
2026-05-04 05:31 53.48593 -6.35094 3350 ft 214 kts
2026-05-04 05:32 53.50081 -6.35012 4134 ft 215 kts
2026-05-04 05:32 53.51537 -6.34502 4818 ft 218 kts 31°
2026-05-04 05:32 53.52534 -6.32581 5318 ft 231 kts 69°
2026-05-04 05:33 53.52735 -6.26810 6449 ft 259 kts 91°
2026-05-04 05:33 53.52643 -6.23762 7263 ft 264 kts 92°
2026-05-04 05:33 53.52543 -6.20659 8075 ft 268 kts 92°
2026-05-04 05:33 53.52451 -6.17513 8856 ft 272 kts 91°
2026-05-04 05:34 53.52371 -6.14314 9611 ft 276 kts 91°
2026-05-04 05:34 53.52304 -6.11075 10365 ft 279 kts 90°
2026-05-04 05:34 53.52217 -6.07682 10653 ft 303 kts 95°
2026-05-04 05:34 53.51773 -6.04086 10871 ft 327 kts 103°
2026-05-04 05:35 53.51222 -6.00291 11307 ft 340 kts 103°
2026-05-04 05:35 53.50658 -5.96398 11977 ft 345 kts 103°
2026-05-04 05:35 53.50086 -5.92461 12674 ft 349 kts 103°
2026-05-04 05:35 53.49515 -5.88544 13351 ft 352 kts 102°
2026-05-04 05:36 53.48934 -5.84532 14026 ft 355 kts 102°
2026-05-04 05:36 53.48375 -5.80477 14679 ft 358 kts 101°
2026-05-04 05:36 53.47854 -5.76378 15319 ft 361 kts 100°
2026-05-04 05:36 53.47348 -5.72234 15943 ft 364 kts 100°
2026-05-04 05:37 53.46840 -5.68057 16553 ft 367 kts 100°
2026-05-04 05:37 53.46324 -5.63852 17150 ft 369 kts 100°
2026-05-04 05:37 53.45793 -5.59619 17730 ft 372 kts 100°
2026-05-04 05:38 53.44711 -5.51064 18867 ft 377 kts 98°
2026-05-04 05:38 53.44470 -5.46670 19334 ft 381 kts 90°
2026-05-04 05:38 53.44365 -5.42198 19837 ft 385 kts 90°
2026-05-04 05:38 53.44263 -5.37698 20377 ft 388 kts 90°
2026-05-04 05:39 53.44158 -5.33161 20908 ft 391 kts 90°
2026-05-04 05:39 53.43932 -5.23992 21920 ft 396 kts 90°
2026-05-04 05:39 53.43807 -5.19362 22413 ft 398 kts 90°
2026-05-04 05:40 53.43546 -5.10092 23307 ft 403 kts 90°
2026-05-04 05:40 53.43402 -5.05391 23737 ft 405 kts 91°
2026-05-04 05:40 53.43250 -5.00659 24138 ft 408 kts 91°
2026-05-04 05:41 53.43093 -4.95904 24536 ft 410 kts 91°
2026-05-04 05:41 53.42931 -4.91115 24926 ft 412 kts 91°
2026-05-04 05:41 53.42770 -4.86308 25297 ft 414 kts 90°
2026-05-04 05:41 53.42612 -4.81478 25656 ft 416 kts 90°
2026-05-04 05:42 53.42453 -4.76625 26013 ft 418 kts 90°
2026-05-04 05:42 53.42291 -4.71753 26371 ft 419 kts 90°
2026-05-04 05:42 53.42127 -4.66860 26705 ft 422 kts 90°
2026-05-04 05:42 53.41959 -4.61948 27028 ft 424 kts 90°
2026-05-04 05:43 53.41787 -4.57001 27350 ft 425 kts 90°
2026-05-04 05:43 53.41611 -4.52044 27678 ft 427 kts 90°
2026-05-04 05:43 53.41431 -4.47065 27987 ft 428 kts 90°
2026-05-04 05:45 53.40104 -4.11751 29845 ft 439 kts 89°
2026-05-04 05:45 53.39904 -4.06640 30077 ft 440 kts 89°
2026-05-04 05:47 53.38434 -3.70825 31903 ft 440 kts 90°
2026-05-04 05:47 53.38062 -3.65720 32167 ft 444 kts 98°
2026-05-04 05:47 53.37532 -3.62335 32330 ft 448 kts 104°
2026-05-04 05:48 53.36372 -3.57470 32579 ft 451 kts 109°
2026-05-04 05:48 53.35131 -3.52651 32829 ft 451 kts 109°
2026-05-04 05:48 53.33891 -3.47826 32999 ft 451 kts 109°
2026-05-04 05:48 53.32656 -3.43014 33038 ft 448 kts 109°
2026-05-04 05:49 53.30217 -3.33531 33024 ft 447 kts 110°
2026-05-04 05:49 53.27754 -3.24001 33028 ft 447 kts 110°
2026-05-04 05:51 53.17799 -2.85939 33016 ft 447 kts 111°
2026-05-04 05:52 53.15292 -2.76452 33013 ft 448 kts 111°
2026-05-04 05:52 53.12773 -2.66968 33010 ft 448 kts 111°
2026-05-04 05:54 53.01618 -2.30067 32999 ft 452 kts 133°
2026-05-04 05:55 52.96590 -2.23687 32999 ft 454 kts 147°
2026-05-04 05:55 52.91283 -2.18122 32993 ft 454 kts 147°
2026-05-04 05:56 52.85941 -2.12541 32997 ft 454 kts 147°
2026-05-04 05:56 52.80598 -2.06978 32829 ft 454 kts 147°
2026-05-04 05:57 52.77924 -2.04197 32579 ft 453 kts 147°
2026-05-04 05:57 52.75249 -2.01419 32198 ft 453 kts 148°
2026-05-04 05:57 52.72563 -1.98634 31099 ft 460 kts 148°
2026-05-04 05:57 52.69872 -1.95842 30572 ft 454 kts 148°
2026-05-04 05:58 52.67210 -1.93083 29937 ft 450 kts 148°
2026-05-04 05:58 52.64572 -1.90362 29330 ft 445 kts 149°
2026-05-04 05:58 52.61956 -1.87674 28711 ft 441 kts 149°
2026-05-04 05:58 52.59368 -1.85015 28113 ft 437 kts 149°
2026-05-04 05:59 52.56802 -1.82381 27518 ft 433 kts 149°
2026-05-04 05:59 52.54260 -1.79778 26927 ft 429 kts 149°
2026-05-04 05:59 52.51739 -1.77198 26339 ft 425 kts 150°
2026-05-04 05:59 52.49236 -1.74639 25763 ft 422 kts 150°
2026-05-04 06:00 52.46758 -1.72105 25204 ft 418 kts 150°
2026-05-04 06:00 52.44306 -1.69594 24658 ft 413 kts 150°
2026-05-04 06:00 52.41882 -1.67111 24124 ft 409 kts 150°
2026-05-04 06:00 52.39477 -1.64658 23610 ft 404 kts 150°
2026-05-04 06:01 52.37104 -1.62245 23119 ft 400 kts 150°
2026-05-04 06:01 52.34753 -1.59857 22639 ft 396 kts 150°
2026-05-04 06:03 52.19123 -1.43079 19487 ft 375 kts 141°
2026-05-04 06:03 52.17149 -1.40308 19102 ft 373 kts 141°
2026-05-04 06:05 52.03620 -1.21504 16477 ft 359 kts 141°
2026-05-04 06:05 51.99834 -1.16266 15746 ft 356 kts 141°
2026-05-04 06:05 51.97952 -1.13673 15383 ft 353 kts 141°
2026-05-04 06:06 51.96086 -1.11097 15022 ft 350 kts 141°
2026-05-04 06:06 51.94227 -1.08530 14349 ft 356 kts 141°
2026-05-04 06:06 51.92350 -1.05942 14035 ft 349 kts 141°
2026-05-04 06:06 51.90530 -1.03436 13904 ft 337 kts 141°
2026-05-04 06:07 51.88770 -1.01016 13777 ft 326 kts 141°
2026-05-04 06:07 51.87091 -0.98709 13651 ft 316 kts 141°
2026-05-04 06:07 51.85515 -0.96309 13528 ft 307 kts 131°
2026-05-04 06:07 51.84414 -0.93398 13402 ft 301 kts 118°
2026-05-04 06:08 51.83506 -0.90411 13275 ft 291 kts 118°
2026-05-04 06:08 51.82626 -0.87513 13148 ft 283 kts 118°
2026-05-04 06:08 51.81772 -0.84700 13007 ft 275 kts 118°
2026-05-04 06:08 51.80931 -0.81946 12759 ft 272 kts 118°
2026-05-04 06:09 51.80094 -0.79220 12472 ft 270 kts 118°
2026-05-04 06:09 51.79258 -0.76510 12187 ft 269 kts 118°
2026-05-04 06:11 51.73548 -0.58012 8992 ft 257 kts 117°
2026-05-04 06:11 51.72752 -0.55446 8440 ft 255 kts 120°
2026-05-04 06:13 51.65733 -0.39731 6982 ft 243 kts 127°
2026-05-04 06:14 51.59953 -0.27026 6508 ft 220 kts 127°
2026-05-04 06:14 51.59045 -0.25058 6265 ft 217 kts 127°
2026-05-04 06:15 51.58158 -0.23129 6092 ft 210 kts 127°
2026-05-04 06:15 51.57303 -0.21267 5765 ft 207 kts 127°
2026-05-04 06:15 51.56434 -0.19368 5193 ft 212 kts 127°
2026-05-04 06:15 51.55567 -0.17473 4774 ft 206 kts 127°
2026-05-04 06:16 51.54748 -0.15684 4593 ft 194 kts 126°
2026-05-04 06:16 51.53952 -0.13958 4489 ft 191 kts 128°
2026-05-04 06:16 51.52891 -0.12714 4230 ft 192 kts 163°
2026-05-04 06:16 51.51584 -0.12759 3943 ft 191 kts 200°
2026-05-04 06:17 51.50486 -0.13943 3683 ft 192 kts 219°
2026-05-04 06:17 51.49404 -0.15187 3401 ft 192 kts 208°
2026-05-04 06:17 51.48369 -0.16521 3093 ft 192 kts 233°
2026-05-04 06:17 51.47843 -0.18464 2875 ft 191 kts 262°
2026-05-04 06:18 51.47797 -0.20574 2739 ft 192 kts 270°
2026-05-04 06:18 51.47801 -0.22712 2573 ft 192 kts 271°
2026-05-04 06:18 51.47801 -0.24849 2339 ft 191 kts 271°
2026-05-04 06:20 51.47776 -0.38519 728 ft 148 kts 271°
2026-05-04 06:20 51.47773 -0.40152 530 ft 145 kts 270°
2026-05-04 06:21 51.47759 -0.45923 85 ft 70 kts 269°
2026-05-04 06:21 51.47756 -0.46432 89 ft 28 kts 266°
2026-05-04 06:22 51.47714 -0.46683 89 ft 23 kts 249°
2026-05-04 06:22 51.47627 -0.46880 89 ft 22 kts 204°
2026-05-04 06:25 51.47122 -0.48475 87 ft 17 kts 179°
2026-05-04 06:25 51.47049 -0.48521 91 ft 9 kts 248°
2026-05-04 06:26 51.47048 -0.48579 87 ft 1 kts 272°
2026-05-04 06:26 51.47048 -0.48586 87 ft 0 kts 271°